Stations météo

Publicité
St-Girons, France (7627): Température de l'air & dewpoint: 18.02.2019 00:00:00 - 24.02.2019 00:00:00 (CET)St-Girons, France (7627): Température de l'air 5cm: 18.02.2019 00:00:00 - 24.02.2019 00:00:00 (CET)St-Girons, France (7627): Température de l'air -20cm & Température de l'air -100cm: 18.02.2019 00:00:00 - 24.02.2019 00:00:00 (CET)St-Girons, France (7627): Vitesse du vent & gusts: 18.02.2019 00:00:00 - 24.02.2019 00:00:00 (CET)St-Girons, France (7627): Direction du vent: 18.02.2019 00:00:00 - 24.02.2019 00:00:00 (CET)St-Girons, France (7627): reduced air pressure: 18.02.2019 00:00:00 - 24.02.2019 00:00:00 (CET)St-Girons, France (7627): visibility: 18.02.2019 00:00:00 - 24.02.2019 00:00:00 (CET)St-Girons, France (7627): Ensoleillement: 18.02.2019 00:00:00 - 24.02.2019 00:00:00 (CET)St-Girons, France (7627): Quantités de précipitations: 18.02.2019 00:00:00 - 24.02.2019 00:00:00 (CET)
Date & Time tt [°C] td [°C] tt 5cm [°C] tt -20cm [°C] tt -100cm [°C] ff [km/h] ff [knt] fx [km/h] fx [knt] dd ppp [hPa] vv [km] sd [min] rr [mm]
24.02.2019 00:00:00 5,4 1,5 0,9 8,3 8,7 2 1 16 9 SE 1031,9 15 0 0,0
23.02.2019 23:00:00 7,0 2,1 2,3 8,3 8,7 11 6 16 9 SSE 1031,4 20 0 0,0
23.02.2019 22:00:00 7,5 2,2 2,2 8,3 8,7 5 3 11 6 SSE 1030,5 20 0 0,0
23.02.2019 21:00:00 7,7 2,4 4,0 8,2 8,7 9 5 11 6 SSE 1029,7 20 0 0,0
23.02.2019 20:00:00 10,8 2,6 4,9 8,2 8,7 3 2 11 6 S 1029,5 19 0 0,0
23.02.2019 19:00:00 14,2 2,4 7,6 8,1 8,7 8 4 16 9 W 1028,6 20 4 0,0
23.02.2019 18:00:00 17,4 2,9 16,4 7,9 8,7 9 5 28 15 WNW 1027,4 20 60 0,0
23.02.2019 17:00:00 18,9 3,5 20,4 7,8 8,7 17 9 40 22 NW 1027,3 20 60 0,0
23.02.2019 16:00:00 19,4 3,9 22,0 7,8 8,7 22 12 39 21 NW 1026,8 20 60 0,0
23.02.2019 15:00:00 19,8 1,2 22,4 7,6 8,6 24 13 40 21 NW 1026,7 20 60 0,0
23.02.2019 14:00:00 19,7 2,1 23,6 7,6 8,7 18 10 32 17 NW 1027,0 20 60 0,0
23.02.2019 13:00:00 19,0 1,9 22,8 7,6 8,7 10 6 25 13 NW 1027,5 20 60 0,0
23.02.2019 12:00:00 18,1 2,4 24,7 7,6 8,7 6 3 12 7 N 1027,4 20 60 0,0
23.02.2019 11:00:00 16,3 2,3 20,3 7,7 8,7 2 1 5 3 ENE 1027,4 20 60 0,0
23.02.2019 10:00:00 11,0 0,7 9,5 7,7 8,7 0 0 4 2 N 1028,4 20 60 0,0
23.02.2019 09:00:00 5,6 -0,3 -1,0 7,8 8,7 0 0 8 4 N 1029,3 20 26 0,0
23.02.2019 08:00:00 2,3 -2,8 -1,3 7,9 8,7 0 0 7 4 N 1030,0 20 0 0,0
23.02.2019 07:00:00 1,8 -2,3 -1,3 7,9 8,7 0 0 10 5 N 1030,0 20 0 0,0
23.02.2019 06:00:00 3,1 -2,0 -0,9 8,0 8,7 2 1 14 8 SSE 1029,7 20 0 0,0
23.02.2019 05:00:00 4,0 -2,2 -0,4 8,0 8,7 3 2 14 7 SSE 1029,6 20 0 0,0
23.02.2019 04:00:00 3,9 -1,5 -0,4 8,1 8,7 4 2 11 6 S 1029,7 20 0 0,0
23.02.2019 03:00:00 4,0 -1,4 0,5 8,1 8,7 4 2 19 10 SSW 1030,1 20 0 0,0
23.02.2019 02:00:00 5,2 -1,3 0,3 8,1 8,7 8 4 14 8 SSE 1030,5 20 0 0,0
23.02.2019 01:00:00 4,6 -0,6 0,1 8,1 8,7 2 1 15 8 N 1030,9 20 0 0,0
23.02.2019 00:00:00 6,1 -0,6 1,0 8,2 8,7 3 1 10 5 W 1030,7 20 0 0,0
22.02.2019 23:00:00 7,6 -0,4 2,1 8,2 8,7 13 7 25 14 S 1030,8 20 0 0,0
22.02.2019 22:00:00 8,0 0,2 1,2 8,1 8,7 13 7 20 11 SSE 1031,0 20 0 0,0
22.02.2019 21:00:00 6,9 0,8 1,4 8,1 8,7 2 1 11 6 SE 1031,4 19 0 0,0
22.02.2019 20:00:00 8,8 1,5 3,0 8,0 8,7 8 4 10 5 SSE 1031,3 19 0 0,0
22.02.2019 19:00:00 12,3 0,1 6,0 7,9 8,7 4 2 7 4 W 1030,0 20 3 0,0
22.02.2019 18:00:00 16,8 0,8 15,1 7,8 8,7 5 3 11 6 NNW 1028,7 20 60 0,0
22.02.2019 17:00:00 19,1 -0,4 21,7 7,6 8,7 7 4 15 8 N 1028,5 20 60 0,0
22.02.2019 16:00:00 20,2 -1,0 24,6 7,5 8,6 7 4 17 9 N 1028,3 19 60 0,0
22.02.2019 15:00:00 20,2 -1,6 25,6 7,4 8,6 8 4 13 7 NNW 1028,3 19 60 0,0
22.02.2019 14:00:00 20,2 -2,8 26,5 7,4 8,6 4 2 10 5 N 1029,0 20 60 0,0
22.02.2019 13:00:00 19,9 -2,5 26,2 7,4 8,7 3 2 9 5 N 1029,9 18 60 0,0
22.02.2019 12:00:00 18,1 0,7 21,3 7,4 8,7 0 0 12 7 N 1031,1 19 60 0,0
22.02.2019 11:00:00 15,3 -0,1 19,1 7,5 8,7 10 5 15 8 SSE 1032,0 20 60 0,0
22.02.2019 10:00:00 12,0 0,4 7,1 7,6 8,7 3 2 14 8 E 1032,5 20 60 0,0
22.02.2019 09:00:00 5,5 -1,0 -1,7 7,6 8,7 5 3 11 6 SSE 1033,5 20 24 0,0
22.02.2019 08:00:00 1,1 -2,3 -2,7 7,7 8,7 4 2 10 5 W 1034,1 20 0 0,0
22.02.2019 07:00:00 0,7 -3,2 -2,6 7,7 8,7 2 1 12 6 WSW 1034,1 20 0 0,0
22.02.2019 06:00:00 2,7 -1,8 -2,4 7,8 8,7 3 1 4 2 W 1033,9 20 0 0,0
22.02.2019 05:00:00 2,4 -1,8 -1,7 7,8 8,6 0 0 9 5 N 1033,7 20 0 0,0
22.02.2019 04:00:00 2,3 -2,0 -2,0 7,9 8,7 2 1 11 6 WNW 1033,6 20 0 0,0
22.02.2019 03:00:00 3,4 -1,6 -1,1 7,9 8,7 4 2 13 7 WNW 1033,5 20 0 0,0
22.02.2019 02:00:00 4,4 -1,0 -0,4 8,0 8,7 3 2 18 10 SW 1033,1 20 0 0,0
22.02.2019 01:00:00 5,1 -0,9 -0,5 8,0 8,7 8 4 18 10 SSE 1033,0 20 0 0,0
22.02.2019 00:00:00 4,9 -0,3 -0,7 8,0 8,7 0 0 6 3 N 1033,1 20 0 0,0
21.02.2019 23:00:00 5,7 0,2 -0,3 8,0 8,7 0 0 5 3 N 1032,6 19 0 0,0
21.02.2019 22:00:00 5,7 0,0 0,6 8,0 8,7 0 0 6 3 N 1032,2 20 0 0,0
21.02.2019 21:00:00 7,1 0,5 2,0 7,9 8,7 0 0 10 6 N 1031,1 18 0 0,0
21.02.2019 20:00:00 8,4 0,8 3,3 7,8 8,7 0 0 7 4 N 1030,3 15 0 0,0
21.02.2019 19:00:00 10,8 1,3 5,1 7,7 8,7 6 3 7 4 W 1028,8 20 1 0,0
21.02.2019 18:00:00 16,0 1,3 15,2 7,6 8,7 0 0 18 10 N 1027,4 20 60 0,0
21.02.2019 17:00:00 18,2 0,8 21,8 7,5 8,6 6 4 18 10 NE 1026,6 20 60 0,0
21.02.2019 16:00:00 18,8 -0,1 23,2 7,4 8,6 9 5 22 12 NE 1026,4 18 60 0,0
21.02.2019 15:00:00 19,8 0,7 25,0 7,3 8,6 8 4 16 9 NE 1026,1 20 60 0,0
21.02.2019 14:00:00 19,8 -0,8 25,5 7,2 8,6 3 1 10 5 NNE 1026,2 20 60 0,0
21.02.2019 13:00:00 18,8 -0,6 23,8 7,2 8,7 2 1 10 5 WSW 1026,8 20 60 0,0
21.02.2019 12:00:00 17,1 1,1 20,5 7,3 8,6 4 2 13 7 S 1027,5 17 60 0,0
21.02.2019 11:00:00 14,1 1,0 14,0 7,3 8,6 8 5 20 11 ESE 1027,8 20 60 0,0
21.02.2019 10:00:00 10,0 0,0 7,2 7,4 8,7 9 5 19 10 SE 1028,6 19 60 0,0
21.02.2019 09:00:00 6,3 -0,2 -0,6 7,5 8,7 11 6 21 11 SSE 1029,1 20 24 0,0
21.02.2019 08:00:00 1,8 -1,5 -2,6 7,5 8,7 5 3 12 6 S 1029,2 20 0 0,0
21.02.2019 07:00:00 0,8 -2,1 -2,2 7,6 8,6 0 0 10 5 N 1028,9 20 0 0,0
21.02.2019 06:00:00 1,4 -1,5 -1,8 7,6 8,7 2 1 10 6 S 1028,8 20 0 0,0
21.02.2019 05:00:00 2,9 -1,3 -2,1 7,7 8,7 4 2 15 8 SE 1028,4 20 0 0,0
21.02.2019 04:00:00 2,5 -0,9 -0,7 7,7 8,7 0 0 21 11 N 1028,7 20 0 0,0
21.02.2019 03:00:00 3,0 -0,1 -1,5 7,8 8,6 4 2 13 7 S 1028,3 20 0 0,0
21.02.2019 02:00:00 2,9 -0,2 -2,1 7,8 8,7 5 3 10 6 S 1028,2 20 0 0,0
21.02.2019 01:00:00 3,0 0,6 -1,8 7,9 8,7 0 0 4 2 N 1027,9 20 0 0,0
21.02.2019 00:00:00 3,6 0,5 -0,8 7,8 8,7 0 0 8 4 N 1027,6 20 0 0,0
20.02.2019 23:00:00 5,3 1,8 0,0 7,9 8,7 3 1 7 4 SSW 1027,0 20 0 0,0
20.02.2019 22:00:00 6,3 0,6 0,9 7,8 8,7 6 3 8 5 S 1026,4 20 0 0,0
20.02.2019 21:00:00 6,6 2,3 2,8 7,8 8,7 3 2 16 9 WSW 1025,9 20 0 0,0
20.02.2019 20:00:00 7,0 2,5 3,0 7,7 8,6 9 5 11 6 SSE 1025,5 20 0 0,0
20.02.2019 19:00:00 10,5 3,3 4,5 7,6 8,7 3 2 6 4 SSW 1024,3 20 0 0,0
20.02.2019 18:00:00 14,2 3,0 14,1 7,5 8,6 4 2 12 7 NNE 1023,3 20 60 0,0
20.02.2019 17:00:00 15,6 4,0 19,0 7,4 8,7 9 5 18 10 NE 1022,6 20 60 0,0
20.02.2019 16:00:00 16,8 3,5 21,7 7,3 8,6 9 5 17 9 NNE 1022,0 20 60 0,0
20.02.2019 15:00:00 16,9 0,1 21,4 7,2 8,6 12 7 20 11 NNW 1022,0 20 60 0,0
20.02.2019 14:00:00 16,9 0,5 22,6 7,2 8,6 8 4 16 9 N 1022,1 20 60 0,0
20.02.2019 13:00:00 16,2 0,3 22,6 7,1 8,6 4 2 8 4 NE 1022,6 18 60 0,0
20.02.2019 12:00:00 14,6 3,1 18,4 7,2 8,7 4 2 9 5 S 1023,2 20 60 0,0
20.02.2019 11:00:00 11,7 0,4 11,9 7,3 8,7 5 3 17 9 SE 1023,4 20 60 0,0
20.02.2019 10:00:00 8,0 0,5 3,0 7,4 8,7 10 5 16 8 SSE 1023,8 20 60 0,0
20.02.2019 09:00:00 2,6 0,7 -2,3 7,4 8,7 3 2 15 8 S 1024,4 20 26 0,0
20.02.2019 08:00:00 0,1 -1,0 -4,1 7,5 8,7 5 3 14 8 S 1024,2 19 0 0,0
20.02.2019 07:00:00 0,2 -0,5 -4,4 7,5 8,6 0 0 9 5 N 1023,7 11 0 0,0
20.02.2019 06:00:00 1,0 -0,6 -4,2 7,6 8,7 6 4 11 6 SE 1023,7 20 0 0,0
20.02.2019 05:00:00 0,1 -0,6 -3,7 7,7 8,6 0 0 7 4 N 1024,0 13 0 0,0
20.02.2019 04:00:00 1,2 -0,1 -3,5 7,7 8,7 5 3 10 5 S 1023,9 19 0 0,0
20.02.2019 03:00:00 1,0 -0,9 -2,8 7,7 8,7 6 3 9 5 SSE 1024,3 20 0 0,0
20.02.2019 02:00:00 1,0 0,3 -2,8 7,8 8,6 0 0 4 2 N 1024,2 2,8 0 0,0
20.02.2019 01:00:00 1,6 0,7 -2,4 7,8 8,6 0 0 10 5 N 1023,9 2,1 0 0,0
20.02.2019 00:00:00 2,4 1,5 -2,3 7,8 8,6 0 0 4 2 N 1023,6 4,7 0 0,0
19.02.2019 23:00:00 2,5 0,9 -1,2 7,8 8,7 2 1 8 4 SE 1023,5 14 0 0,0
19.02.2019 22:00:00 2,8 1,5 -1,2 7,8 8,6 6 3 8 4 SSW 1023,2 12 0 0,0
19.02.2019 21:00:00 4,6 2,5 0,8 7,8 8,7 3 2 11 6 S 1022,5 18 0 0,0
19.02.2019 20:00:00 6,5 4,5 1,6 7,7 8,7 5 3 8 4 SSE 1021,8 13 0 0,0
19.02.2019 19:00:00 7,6 4,2 3,7 7,6 8,6 4 2 11 6 SSW 1021,4 15 0 0,0
19.02.2019 18:00:00 10,5 5,7 9,4 7,5 8,6 9 5 13 7 W 1020,6 20 50 0,0
19.02.2019 17:00:00 11,9 5,3 11,8 7,4 8,6 5 3 19 10 N 1020,7 20 26 0,0
19.02.2019 16:00:00 13,9 5,5 15,2 7,3 8,6 7 4 17 9 N 1020,3 20 51 0,0
19.02.2019 15:00:00 14,3 4,8 20,1 7,2 8,6 4 2 17 9 NE 1020,4 20 60 0,0
19.02.2019 14:00:00 13,5 4,6 20,3 7,2 8,6 6 3 13 7 ENE 1021,2 19 60 0,0
19.02.2019 13:00:00 12,4 3,6 19,2 7,2 8,6 5 3 11 6 NNE 1021,9 19 60 0,0
19.02.2019 12:00:00 11,3 3,3 16,3 7,3 8,6 0 0 8 4 N 1022,7 20 60 0,0
19.02.2019 11:00:00 8,4 2,8 9,9 7,3 8,6 6 3 14 8 ESE 1023,5 19 60 0,0
19.02.2019 10:00:00 5,0 0,6 3,8 7,5 8,7 9 5 14 7 SE 1024,2 20 60 0,0
19.02.2019 09:00:00 1,6 -2,0 -2,9 7,5 8,6 8 4 13 7 SSE 1024,8 20 25 0,0
19.02.2019 08:00:00 -1,1 -2,7 -5,2 7,6 8,6 0 0 5 3 N 1024,8 16 0 0,0
19.02.2019 07:00:00 -1,9 -3,3 -5,2 7,6 8,6 3 2 4 2 NW 1024,7 20 0 0,0
19.02.2019 06:00:00 -1,4 -3,0 -5,2 7,7 8,6 0 0 8 5 N 1024,0 20 0 0,0
19.02.2019 05:00:00 -1,3 -2,7 -4,7 7,8 8,6 2 1 8 4 S 1023,5 20 0 0,0
19.02.2019 04:00:00 -0,7 -3,1 -4,5 7,8 8,6 4 2 6 4 SSE 1023,2 20 0 0,0
19.02.2019 03:00:00 0,5 -2,7 -3,5 7,8 8,7 4 2 8 4 E 1023,0 20 0 0,0
19.02.2019 02:00:00 1,1 -0,4 -2,7 7,9 8,6 0 0 5 3 N 1022,9 20 0 0,0
19.02.2019 01:00:00 2,4 -0,5 -2,3 7,9 8,6 4 2 7 4 S 1022,2 20 0 0,0
19.02.2019 00:00:00 3,7 -0,9 -0,6 7,9 8,6 9 5 15 8 SSE 1021,5 20 0 0,0
18.02.2019 23:00:00 4,9 0,3 0,8 7,9 8,6 10 6 19 10 SE 1021,2 20 0 0,0
18.02.2019 22:00:00 3,7 0,2 0,3 7,9 8,6 8 4 18 10 SSE 1021,2 20 0 0,0
18.02.2019 21:00:00 5,2 1,7 1,3 7,8 8,6 6 3 13 7 SE 1020,5 19 0 0,0
18.02.2019 20:00:00 8,3 3,9 2,6 7,8 8,6 4 2 7 4 SW 1019,5 20 0 0,0
18.02.2019 19:00:00 11,1 3,9 5,5 7,7 8,7 3 1 13 7 E 1018,3 20 1 0,0
18.02.2019 18:00:00 14,1 2,9 12,7 7,6 8,6 6 3 13 7 E 1017,2 20 49 0,0
18.02.2019 17:00:00 16,0 2,0 19,0 7,4 8,6 8 4 18 10 E 1017,0 20 60 0,0
18.02.2019 16:00:00 17,1 1,1 21,7 7,3 8,6 8 4 16 9 ESE 1017,0 20 60 0,0
18.02.2019 15:00:00 17,3 2,5 22,4 7,2 8,6 4 2 13 7 E 1017,3 20 60 0,0
18.02.2019 14:00:00 15,9 0,8 21,4 7,2 8,6 8 4 14 8 SE 1018,3 20 60 0,0
18.02.2019 13:00:00 14,6 2,1 21,9 7,2 8,6 6 3 11 6 ESE 1019,1 20 60 0,0
18.02.2019 12:00:00 13,6 1,9 20,5 7,2 8,6 3 1 7 4 ESE 1019,8 20 60 0,0
18.02.2019 11:00:00 11,6 0,7 13,2 7,3 8,6 0 0 11 6 N 1020,2 20 60 0,0
18.02.2019 10:00:00 7,9 1,7 5,6 7,4 8,6 8 4 16 8 SE 1020,8 20 60 0,0
18.02.2019 09:00:00 4,0 -3,8 -1,0 7,5 8,6 9 5 16 9 SE 1021,5 20 18 0,0
18.02.2019 08:00:00 1,7 -3,6 -1,7 7,5 8,6 11 6 18 10 SSE 1021,3 20 0 0,0
18.02.2019 07:00:00 2,6 -3,1 -0,2 7,6 8,6 14 7 24 13 SE 1020,7 20 0 0,0
18.02.2019 06:00:00 2,0 -3,5 -0,3 7,6 8,6 14 8 21 12 SSE 1020,9 20 0 0,0
18.02.2019 05:00:00 2,5 -1,7 -0,6 7,7 8,6 13 7 18 10 SSE 1020,9 20 0 0,0
18.02.2019 04:00:00 1,8 -2,9 -0,5 7,7 8,6 12 6 21 11 SSE 1021,3 20 0 0,0
18.02.2019 03:00:00 1,9 -2,4 -1,4 7,7 8,6 14 8 17 9 SSE 1021,7 20 0 0,0
18.02.2019 02:00:00 1,7 -1,0 -1,8 7,8 8,6 3 2 10 6 ESE 1021,9 20 0 0,0
18.02.2019 01:00:00 4,6 1,6 1,4 7,8 8,6 10 5 19 11 SSE 1021,3 20 0 0,0
18.02.2019 00:00:00 4,6 1,6 2,2 7,8 8,6 13 7 21 11 SSE 1021,2 20 0 0,0

tt = Température de l'air
td = dewpoint
tt 5cm = Température de l'air 5cm
tt -20cm = Température de l'air -20cm
tt -100cm = Température de l'air -100cm
ff = Vitesse du vent
fx = gusts
dd = Direction du vent
ppp = reduced air pressure
vv = visibility
sd = Ensoleillement
rr = Quantités de précipitations

stations d'obs. à proximité